Location: Clarion
(42.7316°N, 93.7330°W)
Time: 08:26:32
(UTC+00:00)

Cosmos 2322 - Pass Details

Date: 22 April 2026
Orbit: 839 x 854 km, 71.0° (Epoch: 17 May)

Event Time Altitude Azimuth Distance (km) Brightness Sun altitude
Rises 10:06:58 0° 335° (NNW) 3,430 7.0 -13.4°
Reaches altitude 10° 10:09:26 10° 336° (NNW) 2,488 6.2 -13.0°
Maximum altitude 10:15:10 86° 65° (ENE) 858 3.8 -12.1°
Drops below altitude 10° 10:20:51 10° 155° (SSE) 2,463 6.1 -11.2°
Sets 10:23:17 0° 156° (SSE) 3,392 6.8 -10.8°
